Home   Weather   Seeb   Past weeks

Flag for Oman Past Weather in Seeb, Oman — Yesterday and Last 2 Weeks

Now
84 °F

Clear.


Feels Like: 94 °F
Forecast: 79 / 86 °F
Wind: 7 mph from West

Location: International Airport

Current Time: Oct 2, 2016 at 12:46:07 AM

Latest Report: Oct 1, 2016 at 11:50 PM


Visibility: 5 mi

Pressure: 29.71 "Hg

Humidity: 79%

Dew Point: 77 °F

Location of SeebLocation

Past Weather in Seeb — Graph

°F

Seeb Temperature Yesterday

Maximum temperature yesterday: 88 °F (at 9:50 AM)
Minimum temperature yesterday: 84 °F (at 5:50 AM)
Average temperature yesterday: 86 °F

High & Low Weather Summary for the Past Weeks

 TemperatureHumidityPressure
High106 °F (Sep 29, 10:50 AM)94% (Sep 19, 3:50 AM)29.83 "Hg (Sep 19, 3:50 AM)
Low81 °F (Sep 28, 5:50 AM)20% (Sep 29, 10:50 AM)29.56 "Hg (Sep 24, 2:50 PM)
Average88 °F72%29.67 "Hg
* Reported Sep 16 10:50 PM — Oct 1 10:50 PM, Seeb, Weather by CustomWeather, © 2016

Note: Actual official high and low records may vary slightly from our data, if they occured in-between our weather recording intervals... More about our weather records

Advertising

Seeb Weather History for the Previous 24 Hours

Scroll right to see more
 ConditionsComfort  
Time TempWeatherWind HumidityBarometerVisibility
10:50 PM
Sat, Oct 1
84 °FClear.6 mph84%29.71 "Hg5 mi
9:50 PM84 °FClear.3 mph84%29.71 "Hg5 mi
8:50 PM84 °FClear.7 mph84%29.71 "Hg5 mi
7:50 PM84 °FClear.7 mph84%29.71 "Hg5 mi
6:50 PM84 °FClear.12 mph84%29.68 "Hg5 mi
5:50 PM84 °FPassing clouds.16 mph84%29.68 "Hg5 mi
4:50 PM84 °FPassing clouds.17 mph84%29.68 "Hg4 mi
3:50 PM86 °FPassing clouds.16 mph79%29.68 "Hg4 mi
2:50 PM88 °FScattered clouds.15 mph75%29.68 "Hg5 mi
1:50 PM88 °FScattered clouds.13 mph70%29.68 "Hg5 mi
12:50 PM88 °FScattered clouds.12 mph75%29.71 "Hg5 mi
11:50 AM88 °FPassing clouds.10 mph75%29.71 "Hg5 mi
10:50 AM88 °FClear.9 mph75%29.74 "Hg5 mi
9:50 AM88 °FClear.8 mph70%29.74 "Hg5 mi
8:50 AM86 °FScattered clouds.9 mph79%29.74 "Hg5 mi
7:50 AM84 °FScattered clouds.8 mph84%29.71 "Hg5 mi
6:50 AM84 °FScattered clouds.6 mph89%29.68 "Hg5 mi
5:50 AM84 °FPassing clouds.5 mph89%29.68 "Hg5 mi
4:50 AM86 °FPassing clouds.7 mph84%29.65 "Hg5 mi
3:50 AM86 °FPassing clouds.8 mph84%29.65 "Hg5 mi
2:50 AM86 °FPartly cloudy.8 mph89%29.62 "Hg4 mi
1:50 AM86 °FClear.2 mph89%29.62 "Hg6 mi
12:50 AM86 °FClear.3 mph89%29.62 "Hg10 mi
Weather by CustomWeather, © 2016

See weather overviewHow to use our weather pages